This is the latest recevied weather packets stored in our database for station/object HB9HFD-13. If no packets are shown the sender has not sent any weather packets the latest 10 day(s).
| Time | Temp. | Humidity | Pressure | Rain* | Wind** | Luminosity | Snow |
|---|---|---|---|---|---|---|---|
| 1787622701 | 17.78° C | 94% | 1009.8 hPa | 3.3 mm | - | - | - |
| 1787622400 | 17.78° C | 94% | 1009.8 hPa | 3.56 mm | - | - | - |
| 1787622100 | 17.78° C | 94% | 1009.7 hPa | 3.81 mm | - | - | - |
| 1787621800 | 17.78° C | 95% | 1009.7 hPa | 3.81 mm | - | - | - |
| 1787621499 | 17.78° C | 94% | 1009.8 hPa | 4.06 mm | - | - | - |
| 1787621199 | 17.78° C | 94% | 1009.7 hPa | 4.06 mm | - | - | - |
| 1787620899 | 17.78° C | 94% | 1009.7 hPa | 4.06 mm | - | - | - |
| 1787620599 | 17.78° C | 94% | 1009.7 hPa | 4.57 mm | - | - | - |
| 1787620298 | 17.78° C | 94% | 1009.7 hPa | 4.83 mm | - | - | - |
| 1787619998 | 17.78° C | 94% | 1009.7 hPa | 5.08 mm | - | - | - |
| 1787619698 | 17.22° C | 94% | 1009.7 hPa | 5.33 mm | - | - | - |
| 1787619398 | 17.22° C | 94% | 1009.7 hPa | 5.59 mm | - | - | - |
| 1787619097 | 17.22° C | 94% | 1009.8 hPa | 5.59 mm | - | - | - |
| 1787618797 | 17.78° C | 94% | 1009.6 hPa | 5.33 mm | - | - | - |
| 1787618497 | 17.78° C | 94% | 1009.7 hPa | 5.33 mm | - | - | - |
| 1787618197 | 17.78° C | 94% | 1009.7 hPa | 5.08 mm | - | - | - |
| 1787617896 | 17.78° C | 94% | 1009.7 hPa | 4.83 mm | - | - | - |
| 1787617596 | 17.78° C | 94% | 1009.7 hPa | 5.08 mm | - | - | - |
| 1787617296 | 17.78° C | 94% | 1009.7 hPa | 4.57 mm | - | - | - |
| 1787616995 | 17.78° C | 94% | 1009.8 hPa | 3.81 mm | - | - | - |
| 1787616695 | 17.78° C | 94% | 1009.7 hPa | 3.81 mm | - | - | - |
| 1787616395 | 17.78° C | 94% | 1009.7 hPa | 5.08 mm | - | - | - |
| 1787616095 | 17.78° C | 94% | 1009.7 hPa | 6.1 mm | - | - | - |
| 1787615794 | 17.78° C | 94% | 1009.6 hPa | 7.37 mm | - | - | - |
| 1787615494 | 17.78° C | 94% | 1009.6 hPa | 8.38 mm | - | - | - |
* Rain latest hour (hover to see other rain measurements)
** Current wind speed in m/s (hover to see current wind gust speed)